Weather History for Hayden, CO

Change the Weather History Date:

Wednesday, November 2, 2011

  Actual Average Record
Temperature  
Mean Temperature 22 °F -  
Max Temperature 30 °F 46 °F 69 °F (1978)
Min Temperature 15 °F 22 °F -14 °F (1991)
Degree Days  
Heating Degree Days 42    
Moisture  
Dew Point 17 °F    
Average Humidity 76    
Maximum Humidity 93    
Minimum Humidity 51    
Precipitation  
Precipitation 0.00 in - - ()
Sea Level Pressure  
Sea Level Pressure 30.35 in    
Wind  
Wind Speed 6 mph (SW)    
Max Wind Speed 15 mph    
Max Gust Speed 21 mph    
Visibility 10 miles    
Events      
Averages and records for this station are not official NWS values.
T = Trace of Precipitation, MM = Missing Value Source: NWS Daily Summary

Daily Weather History Graph

Daily Weather History Graph

Search for Another Location

Airport:

Trip Planner

Search our weather history database for the weather conditions in past years. The results will help you decide how hot, cold, wet, or windy it might be!

Date:

Astronomy

Nov. 02, 2011 Rise Set
Actual Time 7:39 AM MDT 6:04 PM MDT
Civil Twilight 7:11 AM MDT 6:32 PM MDT
Nautical Twilight 6:39 AM MDT 7:05 PM MDT
Astronomical Twilight 6:07 AM MDT 7:36 PM MDT
Moon 2:00 PM MDT (11/2) No Moon Set
Length of Visible Light 11h 21m
Length of Day
10h 24m
Waxing Crescent, 51% of the Moon is Illuminated
Nov 2
Waxing Crescent
Nov 10
Full
Nov 18
Last Quarter
Nov 24
New
Dec 2
First Quarter

Hourly Weather History & Observations

Time (MDT) Temp. Windchill Dew Point Humidity Pressure Visibility Wind Dir Wind Speed Gust Speed Precip Events Conditions
12:15 AM 26.6 °F - 24.8 °F 93% 30.05 in 1.0 mi Calm Calm - N/A   Overcast
12:55 AM 28.4 °F 20.4 °F 24.8 °F 86% 30.08 in 9.0 mi East 8.1 mph - N/A   Mostly Cloudy
1:15 AM 28.4 °F 24.6 °F 21.2 °F 74% 30.08 in 10.0 mi East 3.5 mph - N/A   Overcast
1:35 AM 28.4 °F 21.2 °F 17.6 °F 64% 30.09 in 10.0 mi East 6.9 mph - N/A   Overcast
1:55 AM 28.4 °F 21.2 °F 17.6 °F 64% 30.08 in 10.0 mi NNW 6.9 mph - N/A   Overcast
2:15 AM 28.4 °F 17.5 °F 17.6 °F 64% 30.10 in 10.0 mi ENE 13.8 mph 20.7 mph N/A   Overcast
2:55 AM 28.4 °F 17.0 °F 15.8 °F 59% 30.13 in 10.0 mi East 15.0 mph - N/A   Overcast
3:55 AM 28.4 °F 23.3 °F 12.2 °F 51% 30.16 in 10.0 mi ENE 4.6 mph - N/A   Overcast
4:55 AM 28.4 °F - 15.8 °F 59% 30.22 in 10.0 mi Calm Calm - N/A   Overcast
5:35 AM 24.8 °F 20.5 °F 19.4 °F 80% 30.24 in 10.0 mi South 3.5 mph - N/A   Overcast
5:55 AM 24.8 °F 17.9 °F 19.4 °F 80% 30.25 in 10.0 mi SSW 5.8 mph - N/A   Overcast
6:15 AM 24.8 °F 19.1 °F 19.4 °F 80% 30.26 in 10.0 mi SSW 4.6 mph - N/A   Overcast
6:35 AM 24.8 °F 16.9 °F 19.4 °F 80% 30.27 in 10.0 mi SSW 6.9 mph - N/A   Overcast
6:55 AM 23.0 °F 18.4 °F 17.6 °F 80% 30.28 in 10.0 mi SW 3.5 mph - N/A   Mostly Cloudy
7:15 AM 21.2 °F 13.6 °F 17.6 °F 86% 30.28 in 10.0 mi SSW 5.8 mph - N/A   Partly Cloudy
7:35 AM 21.2 °F 14.9 °F 17.6 °F 86% 30.30 in 10.0 mi WSW 4.6 mph - N/A   Clear
7:55 AM 19.4 °F 12.8 °F 15.8 °F 86% 30.31 in 10.0 mi WNW 4.6 mph - N/A   Clear
8:15 AM 21.2 °F 16.4 °F 15.8 °F 80% 30.32 in 10.0 mi West 3.5 mph - N/A   Clear
8:35 AM 21.2 °F 14.9 °F 15.8 °F 80% 30.34 in 10.0 mi WSW 4.6 mph - N/A   Clear
9:15 AM 19.4 °F 11.5 °F 15.8 °F 86% 30.37 in 10.0 mi SW 5.8 mph - N/A   Clear
9:35 AM 21.2 °F 12.6 °F 15.8 °F 80% 30.37 in 10.0 mi SSW 6.9 mph - N/A   Clear
9:55 AM 21.2 °F 16.4 °F 15.8 °F 80% 30.39 in 10.0 mi SW 3.5 mph - N/A   Clear
10:35 AM 23.0 °F 17.0 °F 15.8 °F 74% 30.40 in 10.0 mi West 4.6 mph - N/A   Clear
10:55 AM 23.0 °F 15.8 °F 15.8 °F 74% 30.41 in 10.0 mi West 5.8 mph - N/A   Clear
11:15 AM 24.8 °F 17.9 °F 17.6 °F 74% 30.42 in 10.0 mi West 5.8 mph - N/A   Clear
11:35 AM 24.8 °F 15.3 °F 17.6 °F 74% 30.42 in 10.0 mi West 9.2 mph - N/A   Clear
12:15 PM 26.6 °F 16.2 °F 19.4 °F 74% 30.42 in 10.0 mi West 11.5 mph - N/A   Clear
12:35 PM 26.6 °F 15.7 °F 19.4 °F 74% 30.42 in 10.0 mi West 12.7 mph - N/A   Clear
1:15 PM 26.6 °F 14.7 °F 19.4 °F 74% 30.41 in 10.0 mi West 15.0 mph - N/A   Clear
1:35 PM 26.6 °F 14.7 °F 17.6 °F 69% 30.41 in 10.0 mi West 15.0 mph - N/A   Clear
2:15 PM 28.4 °F 17.5 °F 19.4 °F 69% 30.40 in 10.0 mi West 13.8 mph - N/A   Clear
2:35 PM 28.4 °F 19.1 °F 21.2 °F 74% 30.40 in 10.0 mi WNW 10.4 mph - N/A   Clear
3:15 PM 28.4 °F 17.5 °F 19.4 °F 69% 30.40 in 10.0 mi West 13.8 mph - N/A   Clear
3:35 PM 30.2 °F 20.2 °F 19.4 °F 64% 30.41 in 10.0 mi West 12.7 mph - N/A   Clear
4:16 PM 30.2 °F 19.8 °F 19.4 °F 64% 30.41 in 10.0 mi West 13.8 mph - N/A   Clear
4:35 PM 30.2 °F - 19.4 °F 64% 30.41 in 9.0 mi North - - N/A   Clear
5:15 PM 28.4 °F 19.1 °F 19.4 °F 69% 30.42 in 10.0 mi NW 10.4 mph - N/A   Clear
5:35 PM 28.4 °F 19.7 °F 19.4 °F 69% 30.42 in 10.0 mi NW 9.2 mph - N/A   Clear
5:55 PM 26.6 °F 18.2 °F 17.6 °F 69% 30.43 in 10.0 mi NW 8.1 mph - N/A   Clear
6:15 PM 24.8 °F - 17.6 °F 74% 30.43 in 10.0 mi Calm Calm - N/A   Clear
6:35 PM 24.8 °F - 17.6 °F 74% 30.44 in 10.0 mi Calm Calm - N/A   Clear
6:55 PM 24.8 °F - 17.6 °F 74% 30.45 in 10.0 mi Calm Calm - N/A   Clear
7:15 PM 24.8 °F 20.5 °F 17.6 °F 74% 30.45 in 10.0 mi SW 3.5 mph - N/A   Clear
7:35 PM 23.0 °F - 17.6 °F 80% 30.45 in 10.0 mi Calm Calm - N/A   Clear
8:15 PM 21.2 °F 13.6 °F 15.8 °F 80% 30.45 in 10.0 mi SW 5.8 mph - N/A   Clear
8:35 PM 19.4 °F - 15.8 °F 86% 30.45 in 10.0 mi Calm Calm - N/A   Clear
8:55 PM 19.4 °F 14.3 °F 15.8 °F 86% 30.45 in 10.0 mi WSW 3.5 mph - N/A   Clear
9:15 PM 19.4 °F - 15.8 °F 86% 30.45 in 10.0 mi Calm Calm - N/A   Clear
9:35 PM 19.4 °F 11.5 °F 12.2 °F 74% 30.46 in 10.0 mi East 5.8 mph - N/A   Clear
9:55 PM 17.6 °F 12.3 °F 15.8 °F 93% 30.46 in 10.0 mi SE 3.5 mph - N/A   Clear
10:15 PM 19.4 °F 14.3 °F 15.8 °F 86% 30.46 in 10.0 mi SSE 3.5 mph - N/A   Clear
10:35 PM 17.6 °F 8.2 °F 12.2 °F 79% 30.46 in 10.0 mi SSE 6.9 mph - N/A   Clear
10:55 PM 15.8 °F 5.1 °F 10.4 °F 79% 30.45 in 10.0 mi SE 8.1 mph - N/A   Clear
11:15 PM 15.8 °F 4.2 °F 12.2 °F 86% 30.45 in 10.0 mi SSE 9.2 mph - N/A   Clear
11:55 PM 17.6 °F 7.3 °F 12.2 °F 79% 30.44 in 10.0 mi SE 8.1 mph - N/A   Clear